Wind_Speed
8 9 10 9 9 7 7 8 8 7 6 6 6 5 6 9 9 12 12 14 14 18 15 13 12 11 8 8 8 8 7 9 9 4 8 12 11 9 10 10 10 10 12
7 8 8 9 8 8 8 5 5 5 6 5 6 6 7 8 9 11 11 9 17 17 15 12 13 10 5 6 6 5 7 9 7 10 15 14 12 12 11 10 10 11 11
6 8 10 9 8 7 7 8 6 5 6 5 5 7 7 8 10 11 10 9 16 15 13 11 9 7 6 6 6 7 9 8 10 14 13 13 15 15 14 12 11 10 9
8 8 10 11 10 8 7 5 5 5 5 6 7 9 10 11 13 12 12 14 17 15 13 11 8 6 7 6 7 8 9 9 9 17 13 15 14 16 13 15 13 13 11
10 7 8 9 10 9 8 8 6 6 6 6 8 12 13 14 15 15 15 16 17 14 12 10 8 8 9 9 8 9 10 10 13 16 16 13 14 19 20 16 16 13 11
10 9 7 9 10 11 10 9 8 7 8 9 12 13 14 14 11 11 12 13 12 12 13 11 10 8 7 7 7 9 9 11 16 16 15 18 22 23 22 21 22 17 6
10 10 8 7 10 11 11 11 11 10 9 13 14 14 15 13 10 8 8 11 11 11 10 9 8 7 6 5 7 8 9 10 11 13 18 19 22 28 29 27 24 18 8
10 10 11 9 8 9 10 12 12 11 11 13 14 14 13 13 11 10 9 10 10 9 7 5 4 4 4 4 5 6 6 8 9 12 13 14 17 22 28 29 28 20 8
11 10 9 9 10 9 10 10 10 10 10 11 11 11 11 10 8 8 6 5 5 5 5 4 3 2 3 3 4 5 6 6 8 12 12 12 15 16 28 26 26 18 7
12 10 9 9 7 8 9 10 10 10 10 8 8 7 7 6 6 3 4 4 2 2 1 1 3 3 4 5 6 6 6 5 5 6 8 11 14 15 26 24 26 26 9
11 10 9 8 8 7 7 7 8 9 8 8 8 7 6 5 4 4 3 2 2 2 2 3 3 4 4 6 6 6 5 5 8 8 9 11 14 19 27 24 22 23 19
14 12 10 9 9 9 8 7 8 8 9 10 10 9 8 7 6 5 4 6 4 3 2 2 4 4 5 5 5 6 7 6 10 11 11 13 16 21 24 24 23 24 22
17 16 14 12 11 10 10 10 9 9 9 9 9 9 9 9 8 7 5 6 6 6 6 6 7 7 7 6 6 7 8 7 11 13 13 14 15 15 18 20 23 24 25
20 19 18 17 16 14 13 12 11 12 12 11 12 11 9 10 9 9 9 9 10 9 10 10 10 11 11 10 10 11 11 11 12 13 13 13 14 15 17 18 17 19 20
21 21 20 20 19 18 17 16 15 13 12 13 13 12 12 13 11 10 11 12 11 10 10 11 13 14 15 14 15 15 14 15 17 17 16 16 16 16 18 19 19 19 19
23 23 23 22 22 21 20 18 18 17 15 15 15 15 13 14 14 13 12 12 12 13 14 14 15 17 18 18 17 16 17 18 20 20 20 20 21 21 20 21 22 22 24
24 23 23 23 23 22 22 21 21 14 15 17 18 18 18 17 16 14 13 12 13 14 18 18 19 19 20 20 20 21 21 19 18 19 22 21 21 23 24 25 25 26 27
24 23 21 21 21 21 21 21 19 19 18 14 13 13 14 15 17 16 15 13 14 17 21 21 24 26 24 24 23 24 24 21 19 20 19 19 21 21 25 28 29 31 29
24 24 22 21 20 18 18 18 18 17 17 17 15 14 12 13 14 15 15 18 19 19 21 21 22 25 24 22 23 25 26 26 26 23 23 23 22 20 22 24 26 29 29
17 17 16 18 18 17 17 16 17 15 15 15 15 14 13 12 13 15 18 20 21 21 23 27 28 29 28 26 24 23 22 23 26 27 27 25 25 24 23 23 25 24 26
10 8 9 10 12 11 12 12 12 13 12 12 13 10 10 13 12 12 14 18 22 22 23 25 25 26 27 26 25 25 24 25 25 25 25 27 27 26 26 26 28 27 26
7 8 8 6 5 4 4 6 7 8 8 9 9 8 6 8 10 13 14 14 15 17 19 19 20 21 21 21 20 21 22 23 23 23 24 24 26 27 28 27 27 26 25
5 6 7 6 4 2 1 3 4 5 6 7 8 8 8 8 8 9 10 11 12 12 12 13 15 16 16 17 18 18 20 21 21 20 21 21 22 23 24 26 25 24 23
6 6 6 6 6 5 5 5 5 5 5 7 8 9 10 9 10 10 9 8 8 9 10 11 12 12 13 15 16 16 18 18 18 18 18 20 22 22 23 25 24 25 25
9 10 12 12 12 11 11 12 11 11 12 13 13 13 13 12 12 12 12 11 10 9 8 7 8 9 9 9 11 12 14 16 18 19 20 20 22 23 23 25 25 24 25
14 14 16 16 16 16 16 17 18 17 18 18 18 18 18 17 17 16 16 16 15 14 14 13 13 11 10 9 9 9 10 11 12 13 15 18 21 23 23 25 24 25 25
Wind_Direction
40 27 16 15 4 359 3 3 359 13 21 42 56 78 122 132 148 181 183 180 178 192 189 185 205 208 231 258 239 228 218 184 121 125 143 164 157 154 132 123 118 111 98
43 40 23 17 18 7 2 11 19 10 23 30 49 72 107 134 135 171 175 181 182 176 178 188 186 180 215 220 203 207 201 186 146 137 155 160 169 164 150 143 131 123 110
51 42 34 31 32 30 12 1 20 44 32 38 74 94 115 153 165 151 137 151 165 149 151 160 160 158 183 197 207 192 171 163 161 164 148 167 165 174 163 153 140 130 117
76 48 36 36 33 34 48 45 25 42 55 64 86 97 96 126 152 157 165 164 161 155 153 162 163 180 190 179 171 170 161 153 152 158 145 157 166 174 171 163 149 137 127
104 75 48 42 48 52 56 62 61 63 61 70 96 107 109 107 109 124 136 143 144 151 157 161 166 165 170 165 173 174 184 171 162 158 152 160 170 176 183 173 158 146 146
120 105 73 62 65 66 68 69 72 76 74 82 92 102 106 104 111 124 136 139 141 147 141 142 152 168 174 178 186 195 201 194 178 173 175 179 191 191 181 173 162 158 169
136 125 115 81 77 72 78 84 81 77 75 78 81 87 87 96 106 112 124 129 133 130 131 135 140 148 158 178 196 204 205 205 216 210 205 206 196 195 184 177 177 180 186
154 146 139 134 104 94 89 87 87 88 86 80 76 78 82 85 91 99 107 118 121 119 118 124 131 140 155 163 184 197 204 212 219 225 235 232 218 204 197 193 188 185 185
174 172 164 157 146 131 115 104 97 92 91 91 87 83 79 77 81 87 93 103 116 123 134 134 139 172 202 203 222 218 217 221 226 224 238 230 210 208 197 190 182 176 161
191 183 181 175 166 151 140 134 127 127 122 106 99 93 96 92 102 115 134 127 118 151 166 183 221 228 234 223 225 236 251 243 227 216 203 199 193 199 200 205 194 185 157
198 198 194 191 187 176 167 157 152 152 148 143 148 151 158 167 176 204 196 195 203 268 302 312 285 269 249 245 250 247 244 260 225 204 199 190 190 191 196 204 211 213 208
202 206 207 203 201 207 209 202 185 182 178 174 176 180 185 190 212 231 227 229 242 236 256 288 268 267 259 259 263 254 247 256 225 214 205 193 192 194 201 209 215 221 226
207 211 213 213 212 210 218 223 226 224 223 210 204 202 207 203 202 212 223 239 247 233 237 243 252 258 256 257 253 246 255 241 229 223 217 215 213 210 209 212 219 225 228
212 213 216 219 219 222 223 221 229 240 244 246 248 247 236 237 233 236 238 239 239 236 235 233 234 238 242 238 230 234 229 226 232 239 234 235 234 228 222 221 224 224 228
219 220 220 225 229 232 232 237 241 244 248 257 265 271 273 271 274 273 268 262 262 258 252 234 230 229 232 228 224 227 232 227 227 229 235 236 237 236 232 227 230 230 229
219 221 224 230 231 236 243 247 248 250 248 254 261 266 268 270 271 270 266 258 254 247 241 239 243 251 253 245 238 236 241 238 236 234 234 238 239 240 239 233 230 232 236
224 228 229 231 236 237 240 245 255 258 263 263 266 268 272 276 274 274 269 261 257 243 240 245 251 254 258 259 255 253 254 259 260 250 244 247 250 243 237 236 237 238 242
226 233 237 241 241 245 246 251 258 265 273 277 282 286 283 280 278 273 263 259 246 233 243 253 259 261 263 265 264 261 262 264 264 261 257 250 251 253 251 244 242 243 245
229 231 233 240 246 252 257 259 262 268 274 283 291 286 291 284 273 266 257 245 241 242 245 246 254 268 272 274 271 269 268 268 266 263 260 258 252 247 248 255 256 252 250
233 241 246 244 236 237 247 253 257 254 265 280 287 300 304 290 278 264 253 247 239 242 251 262 268 272 276 278 279 278 276 270 266 264 261 257 258 255 249 254 260 259 256
230 223 235 236 239 229 234 244 253 266 276 286 294 309 302 294 295 284 276 268 265 263 263 273 277 279 281 281 280 277 274 275 274 272 268 264 258 253 257 257 263 265 263
187 179 173 184 204 216 228 248 259 277 291 299 315 327 315 291 296 296 292 286 284 284 282 281 282 284 284 283 281 278 277 275 275 274 271 268 266 265 264 256 258 260 260
137 140 131 130 131 127 357 330 321 318 324 328 334 337 337 329 321 312 311 313 311 304 297 290 287 286 287 287 287 284 281 281 284 283 276 272 269 266 264 260 258 255 251
125 119 106 90 73 66 58 50 37 24 20 22 22 22 20 12 7 359 355 352 341 330 319 308 300 296 295 295 293 290 287 286 284 280 276 272 269 267 263 260 258 257 256
96 95 92 88 84 79 81 78 74 71 69 66 62 59 56 53 49 36 27 25 22 15 9 358 343 331 324 315 307 302 299 294 289 285 281 277 274 271 267 264 260 259 255
93 94 93 92 91 91 90 86 81 78 74 71 68 64 60 55 51 44 35 32 29 26 20 15 11 1 351 340 327 315 307 300 294 290 286 283 280 277 274 270 268 260 254
Height
796 795 794 792 790 789 786 782 780 779 779 778 778 777 777 779 782 785 789 792 794 798 803 806 809 812 815 817 818 819 821 822 828 837 837 841 844 847 846 848 849 850 850
795 795 794 792 791 789 788 787 784 782 781 781 779 778 778 780 783 787 789 791 792 798 800 805 808 810 812 816 817 819 820 821 823 830 837 839 843 846 847 848 848 849 850
796 795 794 793 792 790 788 784 785 785 783 783 783 782 781 783 785 788 790 792 794 800 802 806 808 809 813 815 817 818 818 820 821 824 832 838 841 845 847 849 850 851 852
796 796 795 794 793 792 791 790 788 786 786 785 785 784 784 785 787 790 792 794 797 801 804 807 808 810 812 814 816 817 819 820 822 825 830 836 841 846 849 851 851 851 853
795 796 796 795 794 793 792 792 792 791 790 788 788 788 788 789 789 792 794 796 797 802 803 806 808 810 812 813 815 817 819 819 821 825 830 835 838 842 845 849 850 853 853
794 796 796 797 796 795 794 794 794 793 793 792 791 791 791 793 796 797 798 799 800 804 805 806 809 811 812 814 816 817 819 819 819 823 826 829 832 837 843 846 849 852 853
793 795 797 797 797 797 797 797 797 796 796 795 795 795 796 798 799 800 802 803 805 806 808 809 811 812 813 814 816 817 818 819 819 821 822 824 827 830 835 842 846 847 848
794 794 795 797 798 798 799 799 799 800 799 799 800 800 800 801 803 804 806 806 807 809 810 812 814 814 815 815 816 817 818 818 819 820 822 823 824 827 831 833 838 843 845
793 795 795 796 797 798 798 799 800 801 801 802 803 803 804 805 806 807 809 810 811 812 813 813 815 816 816 816 817 817 817 817 818 819 821 822 823 825 828 833 837 841 845
793 794 796 797 798 798 798 799 800 802 802 804 805 806 807 808 810 812 812 813 813 815 815 815 816 816 815 815 816 817 818 819 819 819 819 822 823 827 830 834 835 838 840
793 795 796 797 798 799 800 800 800 801 802 803 806 808 809 810 811 812 812 813 813 815 815 816 816 816 815 816 817 817 818 818 819 820 820 821 824 825 829 833 837 838 839
791 793 795 796 797 799 801 802 802 802 802 803 804 806 807 808 810 811 811 812 813 814 814 815 816 816 816 816 817 818 818 818 819 819 821 822 823 824 826 830 833 836 837
791 792 794 796 796 797 799 801 803 804 804 803 804 805 806 807 807 808 809 809 810 811 811 811 812 813 813 814 815 816 817 817 818 819 819 820 822 825 826 826 828 831 832
787 790 793 794 795 796 797 798 800 802 804 805 805 805 806 807 806 807 808 808 808 808 808 808 808 808 809 810 811 812 813 814 815 817 817 820 821 822 823 825 827 828 829
785 788 789 791 794 795 795 797 798 800 801 802 804 805 805 805 806 807 807 807 808 808 808 807 807 807 806 806 807 808 808 809 810 811 814 815 817 818 819 820 822 823 823
781 784 786 788 791 793 795 796 796 798 799 800 801 802 802 802 803 804 804 804 805 805 806 806 805 806 806 806 806 806 805 805 806 807 807 809 810 812 814 815 816 817 816
777 781 783 785 788 789 792 793 794 796 796 797 798 799 800 801 801 802 802 803 803 803 802 802 801 801 802 803 804 804 804 805 806 805 806 805 806 806 808 809 810 811 811
771 775 779 782 784 787 788 790 791 791 792 793 794 795 796 796 796 797 799 800 799 799 799 799 798 797 797 798 800 801 801 802 803 803 803 803 804 804 803 803 804 805 806
767 769 771 775 779 782 784 785 786 787 788 788 790 790 791 791 790 791 792 793 794 794 795 795 794 793 794 795 795 796 796 797 799 799 798 798 798 799 798 798 799 800 801
767 768 770 772 774 776 780 782 783 782 783 784 785 787 787 786 785 786 787 787 787 788 788 789 790 790 789 789 790 791 790 790 790 792 793 792 793 793 793 793 792 794 793
765 765 769 771 774 775 778 780 782 784 782 781 782 784 784 783 782 782 783 784 784 784 783 783 784 785 784 784 783 784 784 784 784 784 785 786 786 786 786 785 785 786 787
763 763 764 768 772 775 777 779 780 781 780 781 781 781 781 781 780 780 781 780 780 780 780 779 779 779 779 779 778 778 778 777 777 776 776 776 777 777 778 779 778 778 779
762 764 765 767 770 773 775 777 778 779 779 779 779 779 779 778 778 778 777 777 777 776 776 777 776 774 774 774 774 773 772 772 772 772 770 770 769 769 769 770 770 771 771
762 764 766 767 769 770 773 775 778 779 779 779 779 779 779 779 779 780 778 775 774 774 774 774 773 771 770 771 769 768 768 768 767 765 765 763 763 763 762 762 762 762 763
765 766 766 768 770 773 775 777 779 780 780 780 780 780 780 780 778 781 780 777 775 774 773 772 772 772 768 766 766 765 765 764 764 762 760 759 757 757 756 756 754 754 755
768 769 770 771 773 775 778 780 781 783 784 784 783 784 783 783 782 782 782 779 778 776 775 774 771 771 768 766 763 762 760 760 759 758 757 755 753 752 750 749 748 748 748